Find Starlink 33761

NORAD ID: 63455 Int'l Des: 2025-069 Owner: SPXS Country: US Constellation: starlink operational
LEOCIRCULAR

Current View

Loading 3D Globe...

About Starlink 33761

Description loading...

Upcoming Passes

Passes for default location (London). Set your location on the main map for personalized predictions.

Altitude History

Loading altitude history...

Two-Line Element Set

1 63455U 25069Y 26149.26246455 .00052004 00000-0 11963-2 0 9994
2 63455 53.1583 125.1666 0001408 53.0164 307.0971 15.42162962 65780
Epoch: May 29, 2026 • Age: 20 hours

Current Status

Altitude 439.2 km
Velocity 7.65 km/s
Sub-Earth Point 5.11°N, 160.82°W
Launch Date Apr 4, 2025
Age 1.1 years
Type internet

Technical Details

Classification Payload
Mass 575.00 kg
Dry Mass 530.00 kg
Total Mass 575.00 kg
Length 0.30 m
Diameter 4.10 m
Span 29.00 m
Shape Box + pan
Manufacturer SPXS
Bus Type Starlink V2MO
Phase Status In Orbit
Owner/State SPXS/US

Most Searched